Orange, MA

2:56 PM EDT on May 23, 2018 (GMT -0400)
Orange Municipal

Weather History for KORE - April, 2014

Change the Weather History Date:

Monday, April 14, 2014

  Actual Average Record
Temperature  
Mean Temperature 64 °F -  
Max Temperature 73 °F 56 °F 73 °F (2014)
Min Temperature 57 °F 30 °F 23 °F (2003)
Degree Days  
Heating Degree Days 1    
Growing Degree Days 14 (Base 50)    
Moisture  
Dew Point 52 °F    
Average Humidity 68    
Maximum Humidity 88    
Minimum Humidity 46    
Precipitation  
Precipitation 0.00 in - - ()
Sea Level Pressure  
Sea Level Pressure 29.92 in    
Wind  
Wind Speed 11 mph (South)    
Max Wind Speed 24 mph    
Max Gust Speed 40 mph    
Visibility 10 miles    
Events      
Averages and records for this station are not official NWS values.
T = Trace of Precipitation, MM = Missing Value Source: NWS Daily Summary

Daily Weather History Graph

Daily Weather History Graph

Search for Another Location

Airport or City:

Astronomy

Apr. 14, 2014 Rise Set
Actual Time 6:09 AM EDT 7:29 PM EDT
Civil Twilight 5:40 AM EDT 7:59 PM EDT
Nautical Twilight 5:05 AM EDT 8:34 PM EDT
Astronomical Twilight 4:28 AM EDT 9:11 PM EDT
Moon 7:05 PM EDT (4/14) 5:41 AM EDT (4/14)
Length of Visible Light 14h 18m
Length of Day
13h 20m
Full, 100% of the Moon is Illuminated
Apr 14
Full
Apr 15
Full
Apr 22
Last Quarter
Apr 29
New
May 6
First Quarter

Hourly Weather History & Observations

Time (EDT) Temp. Dew Point Humidity Pressure Visibility Wind Dir Wind Speed Gust Speed Precip Events Conditions
12:52 AM 59.0 °F 48.9 °F 69% 29.99 in 10.0 mi SSE 6.9 mph - N/A   Clear
1:52 AM 57.9 °F 50.0 °F 75% 29.99 in 10.0 mi SSE 4.6 mph - N/A   Clear
2:52 AM 59.0 °F 51.1 °F 75% 29.98 in 10.0 mi SSE 8.1 mph - N/A   Clear
3:52 AM 57.9 °F 51.1 °F 78% 29.97 in 10.0 mi South 8.1 mph - N/A   Clear
5:52 AM 57.0 °F 52.0 °F 83% 29.96 in 10.0 mi South 10.4 mph - N/A   Clear
6:52 AM 57.0 °F 52.0 °F 83% 29.96 in 10.0 mi South 10.4 mph - N/A   Clear
7:49 AM 57.2 °F 53.6 °F 88% 29.97 in 10.0 mi South 8.1 mph - N/A   Mostly Cloudy
7:52 AM 57.9 °F 53.1 °F 84% 29.97 in 10.0 mi South 6.9 mph - N/A   Mostly Cloudy
8:52 AM 61.0 °F 54.0 °F 78% 29.96 in 10.0 mi South 13.8 mph - N/A   Overcast
9:32 AM 63.0 °F 54.0 °F 72% 29.96 in 10.0 mi South 12.7 mph - N/A   Scattered Clouds
9:52 AM 64.0 °F 54.0 °F 70% 29.96 in 10.0 mi South 12.7 mph 24.2 mph N/A   Partly Cloudy
10:52 AM 68.0 °F 54.0 °F 61% 29.94 in 10.0 mi South 13.8 mph 19.6 mph N/A   Clear
11:52 AM 71.1 °F 53.1 °F 53% 29.92 in 10.0 mi South 15.0 mph 26.5 mph N/A   Clear
12:52 PM 70.0 °F 52.0 °F 53% 29.91 in 10.0 mi South 19.6 mph 23.0 mph N/A   Scattered Clouds
2:52 PM 70.0 °F 48.0 °F 46% 29.87 in 10.0 mi South 24.2 mph 34.5 mph N/A   Clear
3:52 PM 69.1 °F 51.1 °F 53% 29.86 in 10.0 mi South 24.2 mph 40.3 mph N/A   Clear
4:52 PM 69.1 °F 51.1 °F 53% 29.84 in 10.0 mi South 17.3 mph 28.8 mph N/A   Clear
5:52 PM 68.0 °F 50.0 °F 52% 29.84 in 10.0 mi South 18.4 mph 29.9 mph N/A   Clear
6:52 PM 64.9 °F 50.0 °F 58% 29.84 in 10.0 mi South 17.3 mph 32.2 mph N/A   Clear
7:52 PM 63.0 °F 48.9 °F 60% 29.86 in 10.0 mi South 20.7 mph 28.8 mph N/A   Clear
8:52 PM 62.1 °F 50.0 °F 65% 29.86 in 10.0 mi South 19.6 mph 31.1 mph N/A   Clear
9:52 PM 61.0 °F 50.0 °F 67% 29.87 in 10.0 mi South 13.8 mph 25.3 mph N/A   Clear
10:45 PM 61.0 °F 52.0 °F 72% 29.87 in 10.0 mi South 12.7 mph 21.9 mph N/A   Mostly Cloudy
10:52 PM 61.0 °F 52.0 °F 72% 29.87 in 10.0 mi South 8.1 mph 21.9 mph N/A   Mostly Cloudy
11:52 PM 60.1 °F 53.1 °F 78% 29.86 in 10.0 mi South 9.2 mph 23.0 mph N/A   Overcast